Time,TemperatureF,DewpointF,PressureIn,WindDirection,WindDirectionDegrees,WindSpeedMPH,WindSpeedGustMPH,Humidity,HourlyPrecipIn,Conditions,Clouds,dailyrainin,SoftwareType,DateUTC
2013-03-22 00:00:00,27.3,12.4,30.00,NE,55,0.0,3.0,53,0.00,,---,0.00,VWS V14.01,2013-03-22 04:00:00,
2013-03-22 00:05:00,27.0,12.6,30.00,NE,55,0.0,1.0,54,0.00,,---,0.00,VWS V14.01,2013-03-22 04:05:00,
2013-03-22 00:10:00,26.8,12.8,30.00,ENE,60,2.0,3.0,55,0.00,,---,0.00,VWS V14.01,2013-03-22 04:10:00,
2013-03-22 00:15:00,26.7,12.3,30.01,ENE,66,0.0,3.0,54,0.00,,---,0.00,VWS V14.01,2013-03-22 04:15:00,
2013-03-22 00:20:00,26.7,13.5,30.01,ENE,63,3.0,4.0,57,0.00,,---,0.00,VWS V14.01,2013-03-22 04:20:00,
2013-03-22 00:25:00,26.5,12.9,30.01,ENE,62,4.0,4.0,56,0.00,,---,0.00,VWS V14.01,2013-03-22 04:25:00,
2013-03-22 00:30:00,26.3,13.9,30.00,ENE,62,0.0,4.0,59,0.00,,---,0.00,VWS V14.01,2013-03-22 04:30:00,
2013-03-22 00:35:00,26.0,13.6,30.01,ENE,62,0.0,4.0,59,0.00,,---,0.00,VWS V14.01,2013-03-22 04:35:00,
2013-03-22 00:40:00,25.3,14.1,30.01,ENE,61,4.0,4.0,62,0.00,,---,0.00,VWS V14.01,2013-03-22 04:40:00,
2013-03-22 00:45:00,25.4,14.2,30.01,East,84,4.0,5.0,62,0.00,,---,0.00,VWS V14.01,2013-03-22 04:45:00,
2013-03-22 00:50:00,25.8,13.5,30.01,ENE,74,2.0,5.0,59,0.00,,---,0.00,VWS V14.01,2013-03-22 04:50:00,
2013-03-22 00:55:00,25.3,14.1,30.01,ENE,74,2.0,2.0,62,0.00,,---,0.00,VWS V14.01,2013-03-22 04:55:00,
2013-03-22 01:00:00,25.2,13.3,30.01,ESE,111,2.0,8.0,60,0.00,,---,0.00,VWS V14.01,2013-03-22 05:00:00,
2013-03-22 01:05:00,25.5,13.9,30.01,ENE,59,4.0,5.0,61,0.00,,---,0.00,VWS V14.01,2013-03-22 05:05:00,
2013-03-22 01:10:00,25.3,13.8,30.01,ENE,59,0.0,4.0,61,0.00,,---,0.00,VWS V14.01,2013-03-22 05:10:00,
2013-03-22 01:15:00,25.0,14.6,30.01,ENE,59,1.0,2.0,64,0.00,,---,0.00,VWS V14.01,2013-03-22 05:15:00,
2013-03-22 01:20:00,25.4,13.8,30.00,NE,44,2.0,4.0,61,0.00,,---,0.00,VWS V14.01,2013-03-22 05:20:00,
2013-03-22 01:25:00,25.7,14.1,30.00,ENE,63,1.0,4.0,61,0.00,,---,0.00,VWS V14.01,2013-03-22 05:25:00,
2013-03-22 01:30:00,25.7,13.4,30.00,ENE,64,2.0,3.0,59,0.00,,---,0.00,VWS V14.01,2013-03-22 05:30:00,
2013-03-22 01:35:00,25.7,13.4,30.00,ENE,74,0.0,4.0,59,0.00,,---,0.00,VWS V14.01,2013-03-22 05:35:00,
2013-03-22 01:40:00,25.2,13.6,29.99,East,98,4.0,6.0,61,0.00,,---,0.00,VWS V14.01,2013-03-22 05:40:00,
2013-03-22 01:45:00,25.3,13.8,29.99,East,87,0.0,6.0,61,0.00,,---,0.00,VWS V14.01,2013-03-22 05:45:00,
2013-03-22 01:50:00,25.5,13.2,29.99,ENE,65,7.0,7.0,59,0.00,,---,0.00,VWS V14.01,2013-03-22 05:50:00,
2013-03-22 01:55:00,25.6,13.3,29.99,ENE,61,1.0,11.0,59,0.00,,---,0.00,VWS V14.01,2013-03-22 05:55:00,
2013-03-22 02:00:00,25.6,12.9,29.99,SE,127,5.0,7.0,58,0.00,,---,0.00,VWS V14.01,2013-03-22 06:00:00,
2013-03-22 02:05:00,25.5,12.8,29.99,East,96,2.0,7.0,58,0.00,,---,0.00,VWS V14.01,2013-03-22 06:05:00,
2013-03-22 02:10:00,25.3,13.0,29.99,SE,137,2.0,6.0,59,0.00,,---,0.00,VWS V14.01,2013-03-22 06:10:00,
2013-03-22 02:15:00,25.2,12.9,30.00,SSE,153,1.0,5.0,59,0.00,,---,0.00,VWS V14.01,2013-03-22 06:15:00,
2013-03-22 02:20:00,25.1,12.8,30.00,SSE,152,0.0,7.0,59,0.00,,---,0.00,VWS V14.01,2013-03-22 06:20:00,
2013-03-22 02:25:00,24.9,14.1,30.00,South,169,0.0,4.0,63,0.00,,---,0.00,VWS V14.01,2013-03-22 06:25:00,
2013-03-22 02:30:00,24.4,13.3,30.00,South,169,0.0,2.0,62,0.00,,---,0.00,VWS V14.01,2013-03-22 06:30:00,
2013-03-22 02:35:00,24.2,13.4,30.01,South,172,0.0,4.0,63,0.00,,---,0.00,VWS V14.01,2013-03-22 06:35:00,
2013-03-22 02:40:00,24.3,13.9,30.00,South,174,2.0,4.0,64,0.00,,---,0.00,VWS V14.01,2013-03-22 06:40:00,
2013-03-22 02:45:00,24.0,13.6,30.00,NNE,20,2.0,5.0,64,0.00,,---,0.00,VWS V14.01,2013-03-22 06:45:00,
2013-03-22 02:50:00,23.8,14.1,30.00,NNE,15,2.0,3.0,66,0.00,,---,0.00,VWS V14.01,2013-03-22 06:50:00,
2013-03-22 02:55:00,24.1,13.7,30.00,NNE,13,3.0,4.0,64,0.00,,---,0.00,VWS V14.01,2013-03-22 06:55:00,
2013-03-22 03:00:00,24.5,13.4,30.00,NNE,13,0.0,4.0,62,0.00,,---,0.00,VWS V14.01,2013-03-22 07:00:00,
2013-03-22 03:05:00,24.3,14.6,30.00,NNE,13,0.0,2.0,66,0.00,,---,0.00,VWS V14.01,2013-03-22 07:05:00,
2013-03-22 03:10:00,23.5,14.2,30.00,NNE,13,0.0,2.0,67,0.00,,---,0.00,VWS V14.01,2013-03-22 07:10:00,
2013-03-22 03:15:00,23.0,14.0,30.00,NNE,13,2.0,3.0,68,0.00,,---,0.00,VWS V14.01,2013-03-22 07:15:00,
2013-03-22 03:20:00,23.3,14.0,30.00,NE,45,3.0,5.0,67,0.00,,---,0.00,VWS V14.01,2013-03-22 07:20:00,
2013-03-22 03:25:00,23.7,13.7,29.99,NE,45,2.0,5.0,65,0.00,,---,0.00,VWS V14.01,2013-03-22 07:25:00,
2013-03-22 03:30:00,24.0,12.9,29.99,East,90,0.0,2.0,62,0.00,,---,0.00,VWS V14.01,2013-03-22 07:30:00,
2013-03-22 03:35:00,23.6,13.2,29.99,East,90,1.0,2.0,64,0.00,,---,0.00,VWS V14.01,2013-03-22 07:35:00,
2013-03-22 03:40:00,22.9,13.9,29.99,East,90,1.0,2.0,68,0.00,,---,0.00,VWS V14.01,2013-03-22 07:40:00,
2013-03-22 03:45:00,22.3,13.7,29.99,East,90,0.0,2.0,69,0.00,,---,0.00,VWS V14.01,2013-03-22 07:45:00,
2013-03-22 03:50:00,22.1,13.8,29.99,East,90,1.0,4.0,70,0.00,,---,0.00,VWS V14.01,2013-03-22 07:50:00,
2013-03-22 03:55:00,21.8,13.9,29.99,East,90,1.0,4.0,71,0.00,,---,0.00,VWS V14.01,2013-03-22 07:55:00,
2013-03-22 04:00:00,22.7,13.4,29.99,ESE,112,1.0,5.0,67,0.00,,---,0.00,VWS V14.01,2013-03-22 08:00:00,
2013-03-22 04:05:00,22.4,13.8,29.99,SE,135,1.0,2.0,69,0.00,,---,0.00,VWS V14.01,2013-03-22 08:05:00,
2013-03-22 04:10:00,22.2,14.6,29.99,SE,135,1.0,2.0,72,0.00,,---,0.00,VWS V14.01,2013-03-22 08:10:00,
2013-03-22 04:15:00,21.7,14.1,29.99,SE,135,0.0,2.0,72,0.00,,---,0.00,VWS V14.01,2013-03-22 08:15:00,
2013-03-22 04:20:00,21.4,14.1,29.99,SE,135,0.0,2.0,73,0.00,,---,0.00,VWS V14.01,2013-03-22 08:20:00,
2013-03-22 04:25:00,21.6,14.0,29.99,SE,135,1.0,4.0,72,0.00,,---,0.00,VWS V14.01,2013-03-22 08:25:00,
2013-03-22 04:30:00,21.8,13.9,30.00,South,180,1.0,3.0,71,0.00,,---,0.00,VWS V14.01,2013-03-22 08:30:00,
2013-03-22 04:35:00,22.2,13.9,30.00,South,180,0.0,0.0,70,0.00,,---,0.00,VWS V14.01,2013-03-22 08:35:00,
2013-03-22 04:40:00,22.4,13.8,29.99,SE,135,1.0,5.0,69,0.00,,---,0.00,VWS V14.01,2013-03-22 08:40:00,
2013-03-22 04:45:00,22.8,13.2,29.99,SE,135,2.0,5.0,66,0.00,,---,0.00,VWS V14.01,2013-03-22 08:45:00,
2013-03-22 04:50:00,23.0,13.4,29.99,SE,135,1.0,4.0,66,0.00,,---,0.00,VWS V14.01,2013-03-22 08:50:00,
2013-03-22 04:55:00,22.8,13.8,29.99,SE,135,1.0,6.0,68,0.00,,---,0.00,VWS V14.01,2013-03-22 08:55:00,
2013-03-22 05:00:00,23.2,13.5,30.00,West,270,3.0,6.0,66,0.00,,---,0.00,VWS V14.01,2013-03-22 09:00:00,
2013-03-22 05:05:00,22.8,13.8,30.00,WNW,292,2.0,4.0,68,0.00,,---,0.00,VWS V14.01,2013-03-22 09:05:00,
2013-03-22 05:10:00,22.4,13.8,30.00,WNW,292,1.0,5.0,69,0.00,,---,0.00,VWS V14.01,2013-03-22 09:10:00,
2013-03-22 05:15:00,21.9,13.3,30.00,WNW,292,0.0,1.0,69,0.00,,---,0.00,VWS V14.01,2013-03-22 09:15:00,
2013-03-22 05:20:00,22.2,13.3,30.00,WNW,292,0.0,2.0,68,0.00,,---,0.00,VWS V14.01,2013-03-22 09:20:00,
2013-03-22 05:25:00,22.3,13.7,30.00,WNW,292,1.0,4.0,69,0.00,,---,0.00,VWS V14.01,2013-03-22 09:25:00,
2013-03-22 05:30:00,22.5,14.2,30.00,WNW,292,1.0,2.0,70,0.00,,---,0.00,VWS V14.01,2013-03-22 09:30:00,
2013-03-22 05:35:00,22.5,14.2,30.01,WNW,292,2.0,5.0,70,0.00,,---,0.00,VWS V14.01,2013-03-22 09:35:00,
2013-03-22 05:40:00,22.1,13.5,30.01,WNW,292,2.0,5.0,69,0.00,,---,0.00,VWS V14.01,2013-03-22 09:40:00,
2013-03-22 05:45:00,21.7,13.8,30.01,WNW,292,1.0,2.0,71,0.00,,---,0.00,VWS V14.01,2013-03-22 09:45:00,
2013-03-22 05:50:00,22.0,13.7,30.01,North,0,2.0,5.0,70,0.00,,---,0.00,VWS V14.01,2013-03-22 09:50:00,
2013-03-22 05:55:00,21.7,13.4,30.01,North,0,0.0,1.0,70,0.00,,---,0.00,VWS V14.01,2013-03-22 09:55:00,
2013-03-22 06:00:00,21.4,13.1,30.01,North,0,0.0,1.0,70,0.00,,---,0.00,VWS V14.01,2013-03-22 10:00:00,
2013-03-22 06:05:00,21.3,14.0,30.01,North,0,1.0,3.0,73,0.00,,---,0.00,VWS V14.01,2013-03-22 10:05:00,
2013-03-22 06:10:00,20.8,13.5,30.01,North,0,1.0,2.0,73,0.00,,---,0.00,VWS V14.01,2013-03-22 10:10:00,
2013-03-22 06:15:00,20.8,13.8,30.02,North,0,1.0,2.0,74,0.00,,---,0.00,VWS V14.01,2013-03-22 10:15:00,
2013-03-22 06:20:00,20.7,13.4,30.02,North,0,1.0,3.0,73,0.00,,---,0.00,VWS V14.01,2013-03-22 10:20:00,
2013-03-22 06:25:00,20.6,13.9,30.02,North,0,1.0,3.0,75,0.00,,---,0.00,VWS V14.01,2013-03-22 10:25:00,
2013-03-22 06:30:00,20.7,14.0,30.03,North,0,1.0,3.0,75,0.00,,---,0.00,VWS V14.01,2013-03-22 10:30:00,
2013-03-22 06:35:00,20.6,13.3,30.03,North,0,1.0,3.0,73,0.00,,---,0.00,VWS V14.01,2013-03-22 10:35:00,
2013-03-22 06:40:00,20.6,13.3,30.03,North,0,1.0,3.0,73,0.00,,---,0.00,VWS V14.01,2013-03-22 10:40:00,
2013-03-22 06:45:00,20.6,13.6,30.03,North,0,0.0,2.0,74,0.00,,---,0.00,VWS V14.01,2013-03-22 10:45:00,
2013-03-22 06:50:00,20.4,13.8,30.03,North,0,0.0,2.0,75,0.00,,---,0.00,VWS V14.01,2013-03-22 10:50:00,
2013-03-22 06:55:00,20.1,13.5,30.04,North,0,0.0,3.0,75,0.00,,---,0.00,VWS V14.01,2013-03-22 10:55:00,
2013-03-22 07:00:00,20.3,13.7,30.04,North,0,1.0,3.0,75,0.00,,---,0.00,VWS V14.01,2013-03-22 11:00:00,
2013-03-22 07:05:00,20.1,13.5,30.04,North,0,1.0,2.0,75,0.00,,---,0.00,VWS V14.01,2013-03-22 11:05:00,
2013-03-22 07:10:00,20.5,13.9,30.05,North,0,2.0,3.0,75,0.00,,---,0.00,VWS V14.01,2013-03-22 11:10:00,
2013-03-22 07:15:00,20.4,13.8,30.05,North,0,2.0,3.0,75,0.00,,---,0.00,VWS V14.01,2013-03-22 11:15:00,
2013-03-22 07:20:00,20.6,13.6,30.05,North,0,2.0,3.0,74,0.00,,---,0.00,VWS V14.01,2013-03-22 11:20:00,
2013-03-22 07:25:00,20.5,13.5,30.06,North,0,2.0,3.0,74,0.00,,---,0.00,VWS V14.01,2013-03-22 11:25:00,
2013-03-22 07:30:00,20.3,13.7,30.06,North,0,0.0,4.0,75,0.00,,---,0.00,VWS V14.01,2013-03-22 11:30:00,
2013-03-22 07:35:00,20.8,13.8,30.06,NNE,22,3.0,6.0,74,0.00,,---,0.00,VWS V14.01,2013-03-22 11:35:00,
2013-03-22 07:40:00,20.7,14.0,30.06,NNE,22,1.0,3.0,75,0.00,,---,0.00,VWS V14.01,2013-03-22 11:40:00,
2013-03-22 07:45:00,20.9,14.5,30.07,NNE,22,2.0,3.0,76,0.00,,---,0.00,VWS V14.01,2013-03-22 11:45:00,
2013-03-22 07:50:00,21.3,14.6,30.06,NNE,22,2.0,5.0,75,0.00,,---,0.00,VWS V14.01,2013-03-22 11:50:00,
2013-03-22 07:55:00,21.3,14.6,30.06,NNE,22,1.0,3.0,75,0.00,,---,0.00,VWS V14.01,2013-03-22 11:55:00,
2013-03-22 08:00:00,21.7,14.4,30.07,NNE,22,1.0,2.0,73,0.00,,---,0.00,VWS V14.01,2013-03-22 12:00:00,
2013-03-22 08:08:00,21.7,14.4,30.07,NNE,22,1.0,2.0,73,0.00,,---,0.00,VWS V14.01,2013-03-22 12:08:00,
2013-03-22 08:10:00,22.7,15.1,30.07,NNE,30,0.0,1.0,72,0.00,,---,0.00,VWS V14.01,2013-03-22 12:10:00,
2013-03-22 08:15:00,24.0,15.3,30.07,NNE,30,0.0,1.0,69,0.00,,---,0.00,VWS V14.01,2013-03-22 12:15:00,
2013-03-22 08:20:00,24.8,14.4,30.07,NNE,31,0.0,0.0,64,0.00,,---,0.00,VWS V14.01,2013-03-22 12:20:00,
2013-03-22 08:25:00,25.6,15.1,30.07,ESE,107,2.0,4.0,64,0.00,,---,0.00,VWS V14.01,2013-03-22 12:25:00,
2013-03-22 08:30:00,25.3,15.2,30.08,South,175,5.0,5.0,65,0.00,,---,0.00,VWS V14.01,2013-03-22 12:30:00,
2013-03-22 08:35:00,25.4,14.6,30.07,SSW,194,2.0,6.0,63,0.00,,---,0.00,VWS V14.01,2013-03-22 12:35:00,
2013-03-22 08:40:00,25.8,14.2,30.08,South,173,4.0,5.0,61,0.00,,---,0.00,VWS V14.01,2013-03-22 12:40:00,
2013-03-22 08:45:00,26.4,15.2,30.09,SSE,165,2.0,5.0,62,0.00,,---,0.00,VWS V14.01,2013-03-22 12:45:00,
2013-03-22 08:50:00,26.8,14.0,30.09,SSE,166,2.0,6.0,58,0.00,,---,0.00,VWS V14.01,2013-03-22 12:50:00,
2013-03-22 08:55:00,27.2,14.4,30.08,SSE,167,2.0,4.0,58,0.00,,---,0.00,VWS V14.01,2013-03-22 12:55:00,
2013-03-22 09:00:00,27.6,16.3,30.08,SSE,167,0.0,5.0,62,0.00,,---,0.00,VWS V14.01,2013-03-22 13:00:00,
2013-03-22 09:05:00,27.8,14.2,30.08,South,174,4.0,5.0,56,0.00,,---,0.00,VWS V14.01,2013-03-22 13:05:00,
2013-03-22 09:10:00,28.0,13.5,30.08,South,173,1.0,5.0,54,0.00,,---,0.00,VWS V14.01,2013-03-22 13:10:00,
2013-03-22 09:15:00,28.3,12.9,30.08,SE,146,1.0,6.0,52,0.00,,---,0.00,VWS V14.01,2013-03-22 13:15:00,
2013-03-22 09:20:00,28.7,13.3,30.09,SSE,150,2.0,5.0,52,0.00,,---,0.00,VWS V14.01,2013-03-22 13:20:00,
2013-03-22 09:25:00,28.8,13.0,30.08,South,179,2.0,5.0,51,0.00,,---,0.00,VWS V14.01,2013-03-22 13:25:00,
2013-03-22 09:30:00,29.4,14.4,30.08,SSE,158,5.0,5.0,53,0.00,,---,0.00,VWS V14.01,2013-03-22 13:30:00,
2013-03-22 09:35:00,29.6,14.1,30.08,South,171,5.0,6.0,52,0.00,,---,0.00,VWS V14.01,2013-03-22 13:35:00,
2013-03-22 09:40:00,29.9,14.9,30.08,South,185,0.0,5.0,53,0.00,,---,0.00,VWS V14.01,2013-03-22 13:40:00,
2013-03-22 09:45:00,29.9,13.5,30.08,South,190,4.0,6.0,50,0.00,,---,0.00,VWS V14.01,2013-03-22 13:45:00,
2013-03-22 09:50:00,30.5,14.5,30.09,SSE,163,4.0,6.0,51,0.00,,---,0.00,VWS V14.01,2013-03-22 13:50:00,
2013-03-22 09:55:00,30.8,13.4,30.08,South,170,1.0,8.0,48,0.00,,---,0.00,VWS V14.01,2013-03-22 13:55:00,
2013-03-22 10:00:00,31.4,13.0,30.09,SSW,207,1.0,7.0,46,0.00,,---,0.00,VWS V14.01,2013-03-22 14:00:00,
2013-03-22 10:05:00,31.5,13.1,30.08,SW,217,2.0,8.0,46,0.00,,---,0.00,VWS V14.01,2013-03-22 14:05:00,
2013-03-22 10:10:00,31.4,13.5,30.08,SSW,198,6.0,7.0,47,0.00,,---,0.00,VWS V14.01,2013-03-22 14:10:00,
2013-03-22 10:15:00,31.9,14.0,30.08,SSW,209,3.0,6.0,47,0.00,,---,0.00,VWS V14.01,2013-03-22 14:15:00,
2013-03-22 10:20:00,32.3,12.8,30.07,SW,214,3.0,8.0,44,0.00,,---,0.00,VWS V14.01,2013-03-22 14:20:00,
2013-03-22 10:25:00,32.1,14.2,30.08,WSW,244,4.0,6.0,47,0.00,,---,0.00,VWS V14.01,2013-03-22 14:25:00,
2013-03-22 10:30:00,32.3,13.9,30.08,SSE,160,4.0,7.0,46,0.00,,---,0.00,VWS V14.01,2013-03-22 14:30:00,
2013-03-22 10:35:00,32.4,13.4,30.08,SSW,194,6.0,6.0,45,0.00,,---,0.00,VWS V14.01,2013-03-22 14:35:00,
2013-03-22 10:40:00,32.7,14.2,30.07,SE,140,7.0,7.0,46,0.00,,---,0.00,VWS V14.01,2013-03-22 14:40:00,
2013-03-22 10:45:00,33.2,14.2,30.08,South,171,5.0,7.0,45,0.00,,---,0.00,VWS V14.01,2013-03-22 14:45:00,
2013-03-22 10:50:00,33.4,14.4,30.07,SSE,166,2.0,7.0,45,0.00,,---,0.00,VWS V14.01,2013-03-22 14:50:00,
2013-03-22 10:55:00,33.9,14.8,30.07,SW,217,5.0,8.0,45,0.00,,---,0.00,VWS V14.01,2013-03-22 14:55:00,
2013-03-22 11:00:00,34.7,14.5,30.07,SSW,192,3.0,11.0,43,0.00,,---,0.00,VWS V14.01,2013-03-22 15:00:00,
2013-03-22 11:05:00,34.8,15.1,30.07,SW,230,6.0,11.0,44,0.00,,---,0.00,VWS V14.01,2013-03-22 15:05:00,
2013-03-22 11:10:00,34.8,14.1,30.07,South,173,2.0,9.0,42,0.00,,---,0.00,VWS V14.01,2013-03-22 15:10:00,
2013-03-22 11:15:00,35.2,15.5,30.07,South,171,6.0,9.0,44,0.00,,---,0.00,VWS V14.01,2013-03-22 15:15:00,
2013-03-22 11:20:00,35.6,14.8,30.06,SW,229,3.0,7.0,42,0.00,,---,0.00,VWS V14.01,2013-03-22 15:20:00,
2013-03-22 11:25:00,36.3,16.5,30.06,SE,135,1.0,11.0,44,0.00,,---,0.00,VWS V14.01,2013-03-22 15:25:00,
2013-03-22 11:30:00,37.0,16.1,30.06,East,101,2.0,8.0,42,0.00,,---,0.00,VWS V14.01,2013-03-22 15:30:00,
2013-03-22 11:35:00,37.3,15.8,30.06,SW,219,4.0,9.0,41,0.00,,---,0.00,VWS V14.01,2013-03-22 15:35:00,
2013-03-22 11:40:00,37.4,14.1,30.06,SE,144,7.0,9.0,38,0.00,,---,0.00,VWS V14.01,2013-03-22 15:40:00,
2013-03-22 11:45:00,37.7,16.1,30.06,SSE,149,5.0,7.0,41,0.00,,---,0.00,VWS V14.01,2013-03-22 15:45:00,
2013-03-22 11:50:00,37.8,15.1,30.06,SSE,150,5.0,9.0,39,0.00,,---,0.00,VWS V14.01,2013-03-22 15:50:00,
2013-03-22 11:55:00,38.2,14.8,30.06,SSE,154,2.0,8.0,38,0.00,,---,0.00,VWS V14.01,2013-03-22 15:55:00,
2013-03-22 12:00:00,39.0,17.3,30.06,SE,125,5.0,6.0,41,0.00,,---,0.00,VWS V14.01,2013-03-22 16:00:00,
2013-03-22 12:05:00,38.9,14.9,30.06,SE,132,2.0,7.0,37,0.00,,---,0.00,VWS V14.01,2013-03-22 16:05:00,
2013-03-22 12:10:00,39.3,15.8,30.05,ENE,70,5.0,5.0,38,0.00,,---,0.00,VWS V14.01,2013-03-22 16:10:00,
2013-03-22 12:15:00,39.9,17.5,30.05,ESE,123,5.0,7.0,40,0.00,,---,0.00,VWS V14.01,2013-03-22 16:15:00,
2013-03-22 12:20:00,40.3,15.5,30.05,SSE,168,2.0,6.0,36,0.00,,---,0.00,VWS V14.01,2013-03-22 16:20:00,
2013-03-22 12:25:00,40.3,15.5,30.05,East,95,5.0,9.0,36,0.00,,---,0.00,VWS V14.01,2013-03-22 16:25:00,
2013-03-22 12:30:00,40.5,16.3,30.04,SSE,164,5.0,7.0,37,0.00,,---,0.00,VWS V14.01,2013-03-22 16:30:00,
2013-03-22 12:35:00,41.5,15.9,30.04,South,180,1.0,10.0,35,0.00,,---,0.00,VWS V14.01,2013-03-22 16:35:00,
2013-03-22 12:40:00,41.2,15.0,30.04,SSW,192,4.0,9.0,34,0.00,,---,0.00,VWS V14.01,2013-03-22 16:40:00,
2013-03-22 12:45:00,41.7,15.4,30.03,ESE,119,5.0,7.0,34,0.00,,---,0.00,VWS V14.01,2013-03-22 16:45:00,
2013-03-22 12:50:00,41.9,16.3,30.03,SSE,157,5.0,7.0,35,0.00,,---,0.00,VWS V14.01,2013-03-22 16:50:00,
2013-03-22 12:55:00,42.2,16.5,30.03,SE,136,5.0,8.0,35,0.00,,---,0.00,VWS V14.01,2013-03-22 16:55:00,
2013-03-22 13:00:00,43.0,17.9,30.03,SE,128,7.0,10.0,36,0.00,,---,0.00,VWS V14.01,2013-03-22 17:00:00,
2013-03-22 13:05:00,43.2,16.1,30.03,WSW,248,3.0,11.0,33,0.00,,---,0.00,VWS V14.01,2013-03-22 17:05:00,
2013-03-22 13:10:00,43.7,18.5,30.02,South,188,8.0,8.0,36,0.00,,---,0.00,VWS V14.01,2013-03-22 17:10:00,
2013-03-22 13:15:00,43.7,16.5,30.02,SSW,205,2.0,10.0,33,0.00,,---,0.00,VWS V14.01,2013-03-22 17:15:00,
2013-03-22 13:20:00,43.5,15.6,30.02,ESE,116,2.0,6.0,32,0.00,,---,0.00,VWS V14.01,2013-03-22 17:20:00,
2013-03-22 13:25:00,43.7,15.8,30.02,East,96,1.0,4.0,32,0.00,,---,0.00,VWS V14.01,2013-03-22 17:25:00,
2013-03-22 13:30:00,44.4,15.7,30.02,SSW,203,3.0,8.0,31,0.00,,---,0.00,VWS V14.01,2013-03-22 17:30:00,
2013-03-22 13:35:00,44.2,14.0,30.02,SSW,210,0.0,7.0,29,0.00,,---,0.00,VWS V14.01,2013-03-22 17:35:00,
2013-03-22 13:40:00,44.4,15.7,30.01,ESE,121,5.0,7.0,31,0.00,,---,0.00,VWS V14.01,2013-03-22 17:40:00,
2013-03-22 13:45:00,45.2,14.9,30.01,SE,134,8.0,9.0,29,0.00,,---,0.00,VWS V14.01,2013-03-22 17:45:00,
2013-03-22 13:50:00,44.9,15.4,30.00,South,181,2.0,9.0,30,0.00,,---,0.00,VWS V14.01,2013-03-22 17:50:00,
2013-03-22 13:55:00,45.6,16.0,30.01,SSE,155,1.0,13.0,30,0.00,,---,0.00,VWS V14.01,2013-03-22 17:55:00,
2013-03-22 14:00:00,45.7,14.5,30.00,SE,146,0.0,10.0,28,0.00,,---,0.00,VWS V14.01,2013-03-22 18:00:00,
2013-03-22 14:05:00,45.6,16.0,30.00,SW,229,5.0,10.0,30,0.00,,---,0.00,VWS V14.01,2013-03-22 18:05:00,
2013-03-22 14:10:00,45.7,18.3,30.00,South,172,4.0,7.0,33,0.00,,---,0.00,VWS V14.01,2013-03-22 18:10:00,
2013-03-22 14:15:00,46.4,14.2,30.00,South,185,0.0,10.0,27,0.00,,---,0.00,VWS V14.01,2013-03-22 18:15:00,
2013-03-22 14:20:00,46.3,15.8,29.99,West,259,2.0,8.0,29,0.00,,---,0.00,VWS V14.01,2013-03-22 18:20:00,
2013-03-22 14:25:00,46.6,14.4,29.99,SSW,202,3.0,9.0,27,0.00,,---,0.00,VWS V14.01,2013-03-22 18:25:00,
2013-03-22 14:30:00,46.1,13.1,29.99,NE,36,4.0,7.0,26,0.00,,---,0.00,VWS V14.01,2013-03-22 18:30:00,
2013-03-22 14:35:00,45.8,15.4,29.98,SSE,157,9.0,11.0,29,0.00,,---,0.00,VWS V14.01,2013-03-22 18:35:00,
2013-03-22 14:40:00,46.5,15.2,29.99,SSE,157,1.0,9.0,28,0.00,,---,0.00,VWS V14.01,2013-03-22 18:40:00,
2013-03-22 14:45:00,47.0,18.7,29.98,SSE,152,6.0,9.0,32,0.00,,---,0.00,VWS V14.01,2013-03-22 18:45:00,
2013-03-22 14:50:00,47.2,18.1,29.98,ESE,123,4.0,8.0,31,0.00,,---,0.00,VWS V14.01,2013-03-22 18:50:00,
2013-03-22 14:55:00,47.3,17.5,29.97,East,99,6.0,8.0,30,0.00,,---,0.00,VWS V14.01,2013-03-22 18:55:00,
2013-03-22 15:00:00,47.7,17.8,29.98,SE,140,4.0,6.0,30,0.00,,---,0.00,VWS V14.01,2013-03-22 19:00:00,
2013-03-22 15:05:00,48.2,19.7,29.98,SE,126,15.0,15.0,32,0.00,,---,0.00,VWS V14.01,2013-03-22 19:05:00,
2013-03-22 15:10:00,49.6,17.9,29.98,West,262,2.0,15.0,28,0.00,,---,0.00,VWS V14.01,2013-03-22 19:10:00,
2013-03-22 15:15:00,49.3,15.9,29.97,West,263,8.0,15.0,26,0.00,,---,0.00,VWS V14.01,2013-03-22 19:15:00,
2013-03-22 15:20:00,49.5,16.0,29.97,WSW,250,3.0,16.0,26,0.00,,---,0.00,VWS V14.01,2013-03-22 19:20:00,
2013-03-22 15:25:00,48.6,16.1,29.97,WNW,286,5.0,11.0,27,0.00,,---,0.00,VWS V14.01,2013-03-22 19:25:00,
2013-03-22 15:30:00,48.6,16.1,29.97,SSW,200,11.0,12.0,27,0.00,,---,0.00,VWS V14.01,2013-03-22 19:30:00,
2013-03-22 15:35:00,48.4,16.0,29.97,SW,223,10.0,11.0,27,0.00,,---,0.00,VWS V14.01,2013-03-22 19:35:00,
2013-03-22 15:40:00,47.9,15.6,29.97,SSW,209,6.0,11.0,27,0.00,,---,0.00,VWS V14.01,2013-03-22 19:40:00,
2013-03-22 15:45:00,48.1,16.5,29.97,SSW,213,8.0,10.0,28,0.00,,---,0.00,VWS V14.01,2013-03-22 19:45:00,
2013-03-22 15:50:00,48.7,17.9,29.97,SW,216,2.0,8.0,29,0.00,,---,0.00,VWS V14.01,2013-03-22 19:50:00,
2013-03-22 15:55:00,49.5,17.8,29.97,South,182,7.0,11.0,28,0.00,,---,0.00,VWS V14.01,2013-03-22 19:55:00,
2013-03-22 16:00:00,49.6,15.2,29.97,West,271,5.0,11.0,25,0.00,,---,0.00,VWS V14.01,2013-03-22 20:00:00,
2013-03-22 16:05:00,49.6,16.1,29.97,WNW,286,5.0,10.0,26,0.00,,---,0.00,VWS V14.01,2013-03-22 20:05:00,
2013-03-22 16:10:00,49.3,15.9,29.97,West,281,6.0,11.0,26,0.00,,---,0.00,VWS V14.01,2013-03-22 20:10:00,
2013-03-22 16:15:00,49.4,15.1,29.96,SW,221,7.0,9.0,25,0.00,,---,0.00,VWS V14.01,2013-03-22 20:15:00,
2013-03-22 16:20:00,49.5,16.9,29.96,SSE,167,5.0,10.0,27,0.00,,---,0.00,VWS V14.01,2013-03-22 20:20:00,
2013-03-22 16:25:00,50.2,19.2,29.96,SSE,166,8.0,12.0,29,0.00,,---,0.00,VWS V14.01,2013-03-22 20:25:00,
2013-03-22 16:30:00,50.3,18.5,29.96,South,188,5.0,13.0,28,0.00,,---,0.00,VWS V14.01,2013-03-22 20:30:00,
2013-03-22 16:35:00,49.8,18.0,29.96,SW,236,5.0,12.0,28,0.00,,---,0.00,VWS V14.01,2013-03-22 20:35:00,
2013-03-22 16:40:00,50.3,18.5,29.97,SW,234,5.0,12.0,28,0.00,,---,0.00,VWS V14.01,2013-03-22 20:40:00,
2013-03-22 16:45:00,50.6,17.0,29.96,NW,312,5.0,10.0,26,0.00,,---,0.00,VWS V14.01,2013-03-22 20:45:00,
2013-03-22 16:50:00,50.9,16.4,29.96,SW,234,3.0,11.0,25,0.00,,---,0.00,VWS V14.01,2013-03-22 20:50:00,
2013-03-22 16:55:00,51.0,18.2,29.96,South,171,5.0,9.0,27,0.00,,---,0.00,VWS V14.01,2013-03-22 20:55:00,
2013-03-22 17:00:00,51.0,17.3,29.96,SW,221,5.0,11.0,26,0.00,,---,0.00,VWS V14.01,2013-03-22 21:00:00,
2013-03-22 17:05:00,51.7,17.0,29.96,SW,229,5.0,10.0,25,0.00,,---,0.00,VWS V14.01,2013-03-22 21:05:00,
2013-03-22 17:10:00,51.3,16.7,29.96,SSW,199,7.0,11.0,25,0.00,,---,0.00,VWS V14.01,2013-03-22 21:10:00,
2013-03-22 17:15:00,50.6,15.2,29.96,SSW,202,0.0,10.0,24,0.00,,---,0.00,VWS V14.01,2013-03-22 21:15:00,
2013-03-22 17:20:00,49.9,15.5,29.96,SSE,167,4.0,7.0,25,0.00,,---,0.00,VWS V14.01,2013-03-22 21:20:00,
2013-03-22 17:25:00,50.5,16.9,29.95,SSW,210,5.0,8.0,26,0.00,,---,0.00,VWS V14.01,2013-03-22 21:25:00,
2013-03-22 17:30:00,51.2,18.4,29.95,WNW,288,2.0,6.0,27,0.00,,---,0.00,VWS V14.01,2013-03-22 21:30:00,
2013-03-22 17:35:00,51.6,17.0,29.95,West,280,5.0,10.0,25,0.00,,---,0.00,VWS V14.01,2013-03-22 21:35:00,
2013-03-22 17:40:00,51.6,17.0,29.95,WSW,252,4.0,8.0,25,0.00,,---,0.00,VWS V14.01,2013-03-22 21:40:00,
2013-03-22 17:45:00,51.5,16.9,29.95,SSW,198,6.0,8.0,25,0.00,,---,0.00,VWS V14.01,2013-03-22 21:45:00,
2013-03-22 17:50:00,51.0,18.2,29.95,SSW,211,4.0,10.0,27,0.00,,---,0.00,VWS V14.01,2013-03-22 21:50:00,
2013-03-22 17:55:00,50.6,17.0,29.96,SSW,200,4.0,11.0,26,0.00,,---,0.00,VWS V14.01,2013-03-22 21:55:00,
2013-03-22 18:00:00,50.5,16.9,29.95,SW,227,5.0,8.0,26,0.00,,---,0.00,VWS V14.01,2013-03-22 22:00:00,
2013-03-22 18:05:00,50.3,17.6,29.96,WNW,285,5.0,12.0,27,0.00,,---,0.00,VWS V14.01,2013-03-22 22:05:00,
2013-03-22 18:10:00,50.1,16.6,29.96,SW,219,13.0,13.0,26,0.00,,---,0.00,VWS V14.01,2013-03-22 22:10:00,
2013-03-22 18:15:00,49.9,16.4,29.96,West,279,1.0,13.0,26,0.00,,---,0.00,VWS V14.01,2013-03-22 22:15:00,
2013-03-22 18:20:00,49.8,17.2,29.97,SW,232,3.0,7.0,27,0.00,,---,0.00,VWS V14.01,2013-03-22 22:20:00,
2013-03-22 18:25:00,49.7,17.1,29.97,West,263,5.0,8.0,27,0.00,,---,0.00,VWS V14.01,2013-03-22 22:25:00,
2013-03-22 18:30:00,49.7,17.9,29.97,WSW,258,1.0,6.0,28,0.00,,---,0.00,VWS V14.01,2013-03-22 22:30:00,
2013-03-22 18:35:00,49.7,18.8,29.97,SW,232,2.0,5.0,29,0.00,,---,0.00,VWS V14.01,2013-03-22 22:35:00,
2013-03-22 18:40:00,49.6,17.9,29.97,WSW,258,4.0,6.0,28,0.00,,---,0.00,VWS V14.01,2013-03-22 22:40:00,
2013-03-22 18:45:00,49.5,17.8,29.97,SSW,209,5.0,9.0,28,0.00,,---,0.00,VWS V14.01,2013-03-22 22:45:00,
2013-03-22 18:50:00,49.3,17.6,29.97,SW,222,4.0,8.0,28,0.00,,---,0.00,VWS V14.01,2013-03-22 22:50:00,
2013-03-22 18:55:00,49.3,17.6,29.97,SSW,209,0.0,6.0,28,0.00,,---,0.00,VWS V14.01,2013-03-22 22:55:00,
2013-03-22 19:00:00,49.2,17.5,29.97,SSW,212,5.0,5.0,28,0.00,,---,0.00,VWS V14.01,2013-03-22 23:00:00,
2013-03-22 19:05:00,49.0,19.7,29.96,SSW,207,3.0,6.0,31,0.00,,---,0.00,VWS V14.01,2013-03-22 23:05:00,
2013-03-22 19:10:00,48.7,20.2,29.96,WSW,252,3.0,4.0,32,0.00,,---,0.00,VWS V14.01,2013-03-22 23:10:00,
2013-03-22 19:15:00,48.5,19.3,29.97,WSW,251,0.0,3.0,31,0.00,,---,0.00,VWS V14.01,2013-03-22 23:15:00,
2013-03-22 19:20:00,48.4,17.6,29.96,SSW,211,2.0,6.0,29,0.00,,---,0.00,VWS V14.01,2013-03-22 23:20:00,
2013-03-22 19:25:00,48.3,17.5,29.97,West,262,3.0,4.0,29,0.00,,---,0.00,VWS V14.01,2013-03-22 23:25:00,
2013-03-22 19:30:00,48.3,18.3,29.97,WSW,252,0.0,4.0,30,0.00,,---,0.00,VWS V14.01,2013-03-22 23:30:00,
2013-03-22 19:35:00,48.1,18.1,29.97,WSW,252,0.0,0.0,30,0.00,,---,0.00,VWS V14.01,2013-03-22 23:35:00,
2013-03-22 19:40:00,47.9,18.7,29.97,SW,216,1.0,6.0,31,0.00,,---,0.00,VWS V14.01,2013-03-22 23:40:00,
2013-03-22 19:45:00,47.7,19.3,29.97,SW,216,2.0,2.0,32,0.00,,---,0.00,VWS V14.01,2013-03-22 23:45:00,
2013-03-22 19:50:00,47.6,20.6,29.97,SW,224,0.0,4.0,34,0.00,,---,0.00,VWS V14.01,2013-03-22 23:50:00,
2013-03-22 19:55:00,47.2,18.9,29.98,SW,226,0.0,3.0,32,0.00,,---,0.00,VWS V14.01,2013-03-22 23:55:00,
2013-03-22 20:00:00,47.1,18.0,29.98,SW,226,2.0,3.0,31,0.00,,---,0.00,VWS V14.01,2013-03-23 00:00:00,
2013-03-22 20:05:00,47.1,18.0,29.98,SW,226,0.0,3.0,31,0.00,,---,0.00,VWS V14.01,2013-03-23 00:05:00,
2013-03-22 20:10:00,46.9,18.6,29.98,SW,226,0.0,3.0,32,0.00,,---,0.00,VWS V14.01,2013-03-23 00:10:00,
2013-03-22 20:15:00,46.8,18.5,29.98,SW,233,0.0,3.0,32,0.00,,---,0.00,VWS V14.01,2013-03-23 00:15:00,
2013-03-22 20:20:00,46.7,19.1,29.98,SW,233,0.0,2.0,33,0.00,,---,0.00,VWS V14.01,2013-03-23 00:20:00,
2013-03-22 20:25:00,46.3,18.8,29.98,SW,233,0.0,0.0,33,0.00,,---,0.00,VWS V14.01,2013-03-23 00:25:00,
2013-03-22 20:30:00,46.2,21.4,29.98,SW,233,1.0,2.0,37,0.00,,---,0.00,VWS V14.01,2013-03-23 00:30:00,
2013-03-22 20:35:00,45.4,20.7,29.99,SW,233,0.0,2.0,37,0.00,,---,0.00,VWS V14.01,2013-03-23 00:35:00,
2013-03-22 20:40:00,44.4,22.8,29.99,SW,233,0.0,2.0,42,0.00,,---,0.00,VWS V14.01,2013-03-23 00:40:00,
2013-03-22 20:45:00,43.5,23.6,29.99,SW,233,0.0,1.0,45,0.00,,---,0.00,VWS V14.01,2013-03-23 00:45:00,
2013-03-22 20:50:00,43.1,22.1,29.99,WSW,238,0.0,3.0,43,0.00,,---,0.00,VWS V14.01,2013-03-23 00:50:00,
2013-03-22 20:55:00,43.1,19.8,29.99,WSW,239,0.0,2.0,39,0.00,,---,0.00,VWS V14.01,2013-03-23 00:55:00,
2013-03-22 21:00:00,43.3,14.0,29.99,WNW,296,5.0,13.0,30,0.00,,---,0.00,VWS V14.01,2013-03-23 01:00:00,
2013-03-22 21:05:00,44.3,10.7,29.99,WNW,301,4.0,15.0,25,0.00,,---,0.00,VWS V14.01,2013-03-23 01:05:00,
2013-03-22 21:10:00,45.2,11.5,30.00,NW,321,4.0,10.0,25,0.00,,---,0.00,VWS V14.01,2013-03-23 01:10:00,
2013-03-22 21:15:00,45.7,9.1,29.99,NNW,340,11.0,14.0,22,0.00,,---,0.00,VWS V14.01,2013-03-23 01:15:00,
2013-03-22 21:20:00,46.0,8.3,30.00,West,264,8.0,12.0,21,0.00,,---,0.00,VWS V14.01,2013-03-23 01:20:00,
2013-03-22 21:25:00,46.0,8.3,30.00,WNW,301,7.0,8.0,21,0.00,,---,0.00,VWS V14.01,2013-03-23 01:25:00,
2013-03-22 21:30:00,46.0,8.3,30.01,SW,217,1.0,7.0,21,0.00,,---,0.00,VWS V14.01,2013-03-23 01:30:00,
2013-03-22 21:35:00,45.9,8.2,30.00,West,261,2.0,6.0,21,0.00,,---,0.00,VWS V14.01,2013-03-23 01:35:00,
2013-03-22 21:40:00,45.5,12.6,30.00,West,261,0.0,3.0,26,0.00,,---,0.00,VWS V14.01,2013-03-23 01:40:00,
2013-03-22 21:45:00,45.0,16.9,30.01,North,360,0.0,3.0,32,0.00,,---,0.00,VWS V14.01,2013-03-23 01:45:00,
2013-03-22 21:50:00,44.2,9.7,30.01,SSW,202,2.0,4.0,24,0.00,,---,0.00,VWS V14.01,2013-03-23 01:50:00,
2013-03-22 21:55:00,44.3,7.9,30.01,WSW,250,2.0,7.0,22,0.00,,---,0.00,VWS V14.01,2013-03-23 01:55:00,
2013-03-22 22:00:00,44.6,9.1,30.01,WNW,283,0.0,7.0,23,0.00,,---,0.00,VWS V14.01,2013-03-23 02:00:00,
2013-03-22 22:05:00,44.4,10.8,30.01,NE,37,4.0,4.0,25,0.00,,---,0.00,VWS V14.01,2013-03-23 02:05:00,
2013-03-22 22:10:00,43.4,16.2,30.01,NE,39,0.0,4.0,33,0.00,,---,0.00,VWS V14.01,2013-03-23 02:10:00,
2013-03-22 22:15:00,41.9,17.5,30.01,NE,39,2.0,2.0,37,0.00,,---,0.00,VWS V14.01,2013-03-23 02:15:00,
2013-03-22 22:20:00,41.1,14.2,30.01,NE,39,0.0,3.0,33,0.00,,---,0.00,VWS V14.01,2013-03-23 02:20:00,
2013-03-22 22:25:00,40.3,17.9,30.02,NE,38,3.0,4.0,40,0.00,,---,0.00,VWS V14.01,2013-03-23 02:25:00,
2013-03-22 22:30:00,40.0,15.2,30.01,NE,38,0.0,3.0,36,0.00,,---,0.00,VWS V14.01,2013-03-23 02:30:00,
2013-03-22 22:35:00,40.0,15.9,30.01,North,5,2.0,3.0,37,0.00,,---,0.00,VWS V14.01,2013-03-23 02:35:00,
2013-03-22 22:40:00,39.9,17.5,30.02,North,5,0.0,3.0,40,0.00,,---,0.00,VWS V14.01,2013-03-23 02:40:00,
2013-03-22 22:45:00,40.3,16.7,30.01,North,5,2.0,4.0,38,0.00,,---,0.00,VWS V14.01,2013-03-23 02:45:00,
2013-03-22 22:50:00,40.8,15.9,30.02,NNW,336,1.0,6.0,36,0.00,,---,0.00,VWS V14.01,2013-03-23 02:50:00,
2013-03-22 22:55:00,41.0,16.1,30.02,NW,319,0.0,5.0,36,0.00,,---,0.00,VWS V14.01,2013-03-23 02:55:00,
2013-03-22 23:00:00,40.9,19.0,30.02,NW,319,2.0,4.0,41,0.00,,---,0.00,VWS V14.01,2013-03-23 03:00:00,
2013-03-22 23:05:00,40.7,15.8,30.02,North,355,2.0,4.0,36,0.00,,---,0.00,VWS V14.01,2013-03-23 03:05:00,
2013-03-22 23:10:00,41.1,17.4,30.02,NNW,347,1.0,5.0,38,0.00,,---,0.00,VWS V14.01,2013-03-23 03:10:00,
2013-03-22 23:15:00,41.2,12.9,30.02,North,9,0.0,6.0,31,0.00,,---,0.00,VWS V14.01,2013-03-23 03:15:00,
2013-03-22 23:20:00,41.5,20.1,30.02,North,9,1.0,3.0,42,0.00,,---,0.00,VWS V14.01,2013-03-23 03:20:00,
2013-03-22 23:25:00,40.7,18.3,30.02,North,9,0.0,2.0,40,0.00,,---,0.00,VWS V14.01,2013-03-23 03:25:00,
2013-03-22 23:30:00,40.4,17.4,30.02,North,9,1.0,3.0,39,0.00,,---,0.00,VWS V14.01,2013-03-23 03:30:00,
2013-03-22 23:35:00,40.0,18.8,30.02,North,9,2.0,2.0,42,0.00,,---,0.00,VWS V14.01,2013-03-23 03:35:00,
2013-03-22 23:40:00,39.7,19.6,30.02,North,9,0.0,3.0,44,0.00,,---,0.00,VWS V14.01,2013-03-23 03:40:00,
2013-03-22 23:45:00,39.7,18.5,30.03,North,9,0.0,3.0,42,0.00,,---,0.00,VWS V14.01,2013-03-23 03:45:00,
2013-03-22 23:50:00,39.9,18.7,30.02,North,9,0.0,2.0,42,0.00,,---,0.00,VWS V14.01,2013-03-23 03:50:00,
2013-03-22 23:55:00,40.0,18.8,30.02,North,9,0.0,0.0,42,0.00,,---,0.00,VWS V14.01,2013-03-23 03:55:00,